カタログに戻る

THOR AGENA B R/B

運用中PO
NORAD 426·ROCKET BODY·🇺🇸 United States

打ち上げ Sep 29, 1962 から Vandenberg Space Force Base

Loading…

次のパス (今後24時間)

TLE

最新Source: Space-Track

元期: Sep 14, 2026, 18:10 UTC

1 00426U 62049B   26257.75737649  .00000070  00000-0  70350-4 0  9999
2 00426  80.4731 179.6167 0018128   0.9346  26.6285 13.68768088192383

AllMySatでTHOR AGENA B R/Bをリアルタイム追跡

Download on the App Store